SCP
5 4 4 5 5 5 5 5 5 4 3 3 3 3 4 4 3 3 2 1 1 1 1 1 1 2 2 2 2 1 1 1 1 1 0 0 1 1
5 4 4 4 5 5 5 5 5 4 4 3 2 3 3 3 2 2 2 1 1 1 1 1 1 2 2 2 2 1 1 1 1 1 0 0 0 0
5 4 4 4 4 4 4 4 4 4 4 3 2 2 2 2 2 2 1 1 1 1 0 0 1 1 1 1 1 1 1 0 0 0 0 0 0 0
3 3 3 4 4 4 4 4 4 4 4 3 2 2 2 2 2 1 1 1 1 1 0 0 0 0 1 1 1 1 0 0 0 0 0 0 0 0
4 3 3 4 4 4 4 4 4 4 4 3 2 2 2 2 1 1 1 1 1 1 0 0 0 0 0 0 0 0 0 0 0 0 0 0 0 0
4 4 4 4 4 3 3 3 4 3 3 3 3 2 2 2 1 1 1 1 1 1 1 0 0 1 1 0 0 0 0 0 0 0 0 0 0 0
5 5 5 4 3 2 2 3 3 3 3 3 3 2 2 2 1 1 1 1 1 1 1 1 1 1 1 1 1 0 0 0 0 0 0 0 0 0
6 6 5 4 3 2 2 2 2 2 3 3 3 2 3 3 2 1 1 1 1 1 1 1 1 1 1 1 1 0 0 0 0 0 0 0 0 0
7 7 6 5 4 4 2 2 1 1 2 2 2 3 3 3 3 2 1 1 1 1 1 1 1 1 1 1 1 0 0 0 0 0 0 0 0 0
6 6 7 7 6 5 4 3 2 2 1 1 2 3 3 3 3 3 2 2 1 1 1 1 1 1 1 1 1 1 0 0 0 0 0 0 0 0
5 5 6 7 7 6 5 5 4 3 2 1 2 2 2 2 3 3 3 2 2 2 2 2 1 1 1 1 1 1 1 0 0 0 0 0 0 0
4 5 5 5 5 5 5 6 6 5 4 3 2 1 1 1 2 2 3 3 2 2 2 2 2 2 1 2 2 2 1 1 1 0 0 0 0 0
4 4 4 3 2 2 4 5 6 5 5 4 3 2 2 2 2 2 3 3 3 2 2 3 2 2 2 2 2 2 2 2 2 1 1 0 0 0
3 3 3 2 1 1 2 3 4 4 5 5 5 4 4 3 3 3 3 3 3 3 3 3 3 2 2 2 2 2 2 2 2 2 1 0 0 0
2 2 2 1 0 0 1 1 2 3 5 6 6 6 5 4 4 4 3 3 3 3 2 3 3 3 2 2 2 2 2 2 2 1 1 1 0 0
2 2 1 1 1 2 2 2 3 4 5 6 7 6 5 5 6 5 5 4 3 2 2 2 3 3 3 3 2 2 2 2 1 1 0 1 1 0
3 3 3 3 4 5 5 5 5 6 7 7 8 7 6 5 5 6 5 5 4 3 3 3 3 3 3 3 2 2 1 1 1 1 0 0 0 0
3 4 4 5 6 8 8 8 8 8 8 8 8 7 6 4 4 4 5 5 4 4 4 4 3 3 2 2 2 1 1 2 2 1 1 0 0 0
4 4 5 6 7 9 9 10 10 9 9 8 8 6 5 4 4 3 3 3 4 4 4 5 4 3 2 2 2 1 1 2 2 2 1 1 1 0
4 5 5 6 7 9 10 11 11 11 9 8 6 5 4 4 3 3 3 3 3 3 4 4 4 4 3 2 2 1 1 1 2 2 2 1 1 0
5 5 6 6 7 8 11 12 13 12 10 8 5 3 3 3 3 3 4 3 3 3 3 3 4 4 3 2 2 1 1 1 1 1 1 1 0 0
6 6 7 7 7 9 12 14 13 11 9 6 3 2 2 2 2 3 3 4 4 4 3 3 3 3 3 2 2 1 1 1 0 0 0 0 0 0
7 7 7 8 8 10 13 14 13 10 8 5 2 1 1 2 2 2 2 3 3 4 3 3 3 3 3 2 1 1 1 1 0 0 0 0 0 0
Wind_Speed
2 2 2 1 1 1 1 2 2 2 2 2 1 2 2 2 4 3 3 5 5 4 4 4 4 3 3 2 2 2 2 2 3 3 3 3 4 4
2 2 1 1 1 1 1 2 2 2 2 1 1 2 2 2 4 2 2 5 5 6 6 5 5 4 3 3 3 2 2 2 3 4 3 3 3 3
2 2 1 1 1 1 1 1 1 1 1 1 1 2 1 2 2 2 3 3 3 6 7 6 6 5 4 4 4 3 3 3 3 4 4 4 4 3
1 1 1 1 0 1 1 2 1 1 2 2 1 1 2 3 3 2 2 3 3 6 7 7 6 6 5 5 5 4 4 3 3 3 4 4 4 3
1 1 1 0 1 1 2 2 1 1 1 2 2 2 2 2 2 2 2 1 2 5 7 7 7 7 7 6 6 5 5 4 4 3 3 3 3 3
1 1 1 1 1 2 2 1 1 2 1 1 2 2 2 2 2 1 1 1 1 2 3 4 6 7 8 7 7 7 6 6 5 5 4 4 3 3
1 1 1 1 2 1 1 1 1 1 1 1 1 1 1 2 1 1 1 1 2 2 1 2 3 3 5 7 7 8 8 7 7 6 5 4 4 4
1 1 1 2 3 2 2 2 0 1 1 1 1 1 1 2 1 2 1 1 2 2 1 2 2 3 4 4 7 9 9 9 8 8 7 6 5 4
1 1 2 1 3 2 1 1 0 2 2 2 2 2 2 2 3 3 2 3 3 2 2 3 2 3 2 4 9 9 10 10 9 9 8 7 6 5
2 2 1 1 2 2 1 1 2 2 3 3 2 2 1 1 2 3 3 3 3 2 2 3 2 2 1 2 8 10 10 10 10 10 9 8 7 6
3 2 2 2 2 3 2 2 2 2 2 1 0 1 2 3 3 2 2 2 3 3 2 2 2 1 1 2 4 8 9 10 10 10 9 8 8 6
2 2 3 3 3 3 2 2 2 2 2 1 1 3 3 4 6 5 4 3 3 3 2 2 2 1 2 1 2 3 5 7 9 9 8 8 8 5
3 2 2 4 5 5 4 3 3 3 2 2 2 3 3 3 4 4 4 4 3 3 2 2 2 2 2 2 1 2 3 3 4 4 7 8 8 7
3 2 1 5 6 6 5 4 4 3 3 3 3 3 3 2 3 3 4 4 3 4 3 3 2 2 2 2 2 2 2 3 3 4 4 5 6 7
3 2 2 5 6 6 7 6 4 3 4 3 3 3 2 2 2 2 3 3 4 4 4 3 3 3 2 3 2 2 2 2 3 3 4 4 4 4
3 2 2 4 5 5 4 4 4 4 4 4 3 3 2 2 2 2 3 3 3 3 3 3 3 3 3 3 2 2 2 2 3 3 3 3 3 4
2 2 2 2 3 3 3 4 4 4 4 4 3 3 3 2 2 2 2 2 3 3 3 2 2 2 3 3 2 3 2 2 3 3 3 2 3 4
2 3 3 3 3 4 4 4 4 4 3 3 3 3 3 2 2 2 2 3 3 3 3 3 3 2 2 3 4 4 3 2 2 3 3 3 3 3
3 3 4 4 4 3 3 3 3 3 3 3 3 3 3 3 3 3 3 3 4 4 3 3 4 4 4 4 3 4 4 3 2 2 3 3 3 3
4 4 4 4 4 3 3 3 3 3 2 3 3 3 3 3 3 3 3 4 4 3 3 3 4 4 5 4 3 3 6 5 3 3 3 3 2 2
4 4 4 4 3 3 3 3 3 3 3 3 3 3 3 3 4 4 3 4 4 3 4 4 5 6 4 2 3 3 3 5 5 4 4 4 3 3
4 4 4 4 3 3 3 3 3 2 3 3 3 3 3 3 4 5 4 4 4 4 4 4 4 4 4 4 4 4 3 3 4 5 5 5 4 4
4 4 4 3 3 2 3 3 3 3 3 3 3 3 4 4 4 4 4 4 4 4 3 3 2 3 4 4 4 3 4 4 4 3 3 5 6 6
Wind_Direction
239 240 254 242 262 254 217 194 193 223 231 199 175 165 163 139 165 176 163 175 181 192 199 195 191 187 189 192 197 194 200 195 194 190 197 203 211 218
218 223 254 247 219 236 241 242 225 209 227 198 175 150 148 160 169 175 169 168 181 187 191 190 186 188 189 186 186 187 183 188 193 191 193 200 205 209
236 203 226 249 269 274 250 237 229 209 222 223 131 135 149 149 152 159 173 170 175 181 181 184 187 189 192 191 191 190 187 189 193 193 194 195 189 185
232 217 232 230 236 290 290 276 247 220 200 211 181 174 178 167 173 200 201 187 177 179 181 188 191 196 198 197 196 191 189 189 188 189 190 194 188 188
227 225 232 229 255 275 283 295 283 270 213 205 209 179 177 186 175 210 234 184 192 177 186 195 199 196 198 202 199 192 191 192 190 187 190 190 191 200
233 232 236 220 227 258 261 266 282 292 261 226 207 182 176 178 165 196 227 211 219 207 188 187 198 199 200 204 201 195 194 194 191 189 188 187 193 201
247 221 244 78 81 53 310 359 320 293 279 246 224 172 149 153 189 229 229 216 226 219 196 193 190 203 205 211 208 203 198 196 192 191 190 192 194 194
244 231 193 152 117 99 80 73 41 260 296 280 243 204 189 178 188 229 234 241 257 218 212 243 208 210 202 197 200 201 202 199 194 191 191 192 190 189
225 238 248 166 129 123 144 186 248 244 236 253 272 258 215 187 195 225 231 240 255 238 226 251 236 233 218 195 186 193 199 199 196 195 194 193 191 191
233 228 219 151 174 163 209 223 245 248 237 233 247 259 250 200 205 223 237 242 253 254 220 249 245 238 229 185 190 190 195 198 198 197 196 196 197 196
239 222 192 186 188 185 204 230 253 268 273 308 272 233 228 218 209 217 235 237 256 251 220 234 252 248 227 203 199 194 196 200 201 201 201 200 199 196
227 212 199 200 195 188 213 225 245 263 263 257 273 254 234 225 217 212 222 236 255 259 215 212 243 230 260 239 193 191 202 208 205 201 202 204 199 192
246 225 213 200 202 209 223 234 240 254 248 234 246 246 230 217 215 218 220 227 245 255 234 205 241 238 234 251 230 206 195 188 187 197 201 203 200 193
257 262 218 203 207 219 226 234 242 256 253 244 244 241 237 230 227 219 224 234 243 252 248 226 225 218 229 252 254 213 199 193 188 189 187 193 202 205
277 285 263 227 217 223 229 230 227 239 245 250 252 248 243 230 215 214 217 228 248 255 247 228 218 214 214 236 255 226 213 207 192 184 181 181 187 187
273 277 242 221 227 235 228 229 232 239 241 248 250 245 240 235 223 218 230 225 237 246 241 228 217 208 217 231 231 238 220 206 192 190 188 186 183 189
244 233 225 217 230 233 229 224 230 235 241 249 254 251 245 243 245 232 226 229 232 237 235 230 213 204 216 220 230 232 218 216 201 182 179 200 201 201
206 236 240 238 237 239 239 238 232 232 242 252 253 250 246 243 250 246 232 233 235 235 231 213 199 206 229 245 228 226 223 221 213 189 184 197 219 215
215 245 247 247 249 248 249 253 252 245 244 247 252 257 259 258 253 251 246 241 239 237 232 215 205 205 220 235 242 217 211 215 206 198 208 207 221 220
234 246 250 253 254 254 254 255 258 253 246 252 252 254 258 263 265 260 253 255 252 245 236 225 216 211 218 227 231 222 208 203 199 209 216 222 217 218
245 246 249 255 260 263 265 260 254 254 256 257 257 257 255 255 261 264 263 260 256 256 244 235 222 211 213 207 218 220 210 209 205 202 205 211 214 222
249 256 256 255 254 255 261 263 259 255 258 254 261 267 265 260 261 260 260 261 254 253 257 250 222 207 207 212 222 223 222 207 209 218 227 219 209 214
251 260 269 264 256 258 260 263 271 271 264 263 263 262 264 264 261 262 265 263 257 253 252 254 247 231 220 215 222 227 225 216 201 203 235 238 217 213